Overview Statistics Trail Chart Weather Telemetry Raw packets
 

This is the latest recevied weather packets stored in our database for station/object KV4OP. If no packets are shown the sender has not sent any weather packets the latest 10 day(s).

<< 44 45 46 47 48 49 50 >>
Time Temp. Humidity Pressure Rain* Wind** Luminosity Snow
1788359722 31.11° C 78% 1016.8 hPa 0 mm - - -
1788359422 30.56° C 79% 1016.9 hPa 0 mm - - -
1788359122 31.11° C 80% 1016.9 hPa 0 mm - - -
1788358835 30.56° C 81% 1016.9 hPa 0 mm - - -
1788358522 30° C 79% 1016.8 hPa 0 mm - - -
1788358223 30° C 82% 1016.8 hPa 0 mm - - -
1788357923 29.44° C 82% 1016.7 hPa 0 mm - - -
1788357631 29.44° C 85% 1016.7 hPa 0 mm - - -
1788357322 28.89° C 84% 1016.8 hPa 0 mm - - -
1788357022 29.44° C 85% 1016.7 hPa 0 mm - - -
1788356723 29.44° C 85% 1016.7 hPa 0 mm - - -
1788356432 28.89° C 86% 1016.6 hPa 0 mm - - -
1788356122 28.89° C 86% 1016.6 hPa 0 mm - - -
1788355822 28.89° C 86% 1016.7 hPa 0 mm - - -
1788355523 28.89° C 87% 1016.7 hPa 0 mm - - -
1788355231 28.89° C 88% 1016.7 hPa 0 mm - - -
1788354923 28.33° C 88% 1016.7 hPa 0 mm - - -
1788354632 27.78° C 90% 1016.6 hPa 0 mm - - -
1788354323 27.78° C 91% 1016.6 hPa 0 mm - - -
1788354031 27.22° C 93% 1016.7 hPa 0 mm - - -
1788353723 27.22° C 94% 1016.7 hPa 0 mm - - -
1788353423 26.67° C 95% 1016.9 hPa 0 mm - - -
1788353122 26.67° C 95% 1016.7 hPa 0 mm - - -
1788352832 26.67° C 95% 1016.6 hPa 0 mm - - -
1788352522 26.67° C 95% 1016.7 hPa 0 mm - - -

* Rain latest hour (hover to see other rain measurements)
** Current wind speed in m/s (hover to see current wind gust speed)